Location: A�t �Alizem
(31.2076°N, 8.7872°W)
Time: 05:23:33
(UTC+00:00)

deb Explorer IX - Pass Details

Date: 29 June 2021
Orbit: 541 x 1234 km, 38.9° (Epoch: 01 August)

Event Time Altitude Azimuth Distance (km) Brightness Sun altitude
Rises 22:17:28 0° 270° (W) 2,686 ? -25.9°
Reaches altitude 10° 22:19:45 10° 279° (W) 1,814 ? -26.2°
Maximum altitude 22:23:35 37° 348° (NNW) 896 ? -26.7°
Enters shadow 22:25:28 25° 36° (NE) 1,212 ? -26.9°
